TimeEDT,TemperatureF,Dew PointF,Humidity,Sea Level PressureIn,VisibilityMPH,Wind Direction,Wind SpeedMPH,Gust SpeedMPH,PrecipitationIn,Events,Conditions,WindDirDegrees,DateUTC
12:52 AM,70.0,63.0,78,29.88,10.0,WSW,6.9,-,N/A,,Partly Cloudy,240,2013-06-27 04:52:00
1:52 AM,70.0,63.0,78,29.88,10.0,WSW,3.5,-,N/A,,Partly Cloudy,240,2013-06-27 05:52:00
2:52 AM,72.0,62.1,71,29.83,10.0,SSW,8.1,-,N/A,,Scattered Clouds,210,2013-06-27 06:52:00
3:52 AM,70.0,61.0,73,29.78,10.0,West,8.1,-,N/A,,Partly Cloudy,260,2013-06-27 07:52:00
4:52 AM,73.0,61.0,66,29.73,10.0,SSW,6.9,19.6,N/A,,Partly Cloudy,210,2013-06-27 08:52:00
5:52 AM,71.1,61.0,70,29.76,10.0,WSW,18.4,27.6,N/A,,Overcast,240,2013-06-27 09:52:00
6:06 AM,69.8,62.6,78,29.89,10.0,WSW,19.6,23.0,N/A,,Overcast,240,2013-06-27 10:06:00
6:16 AM,69.8,62.6,78,29.89,7.0,WSW,15.0,24.2,0.00,Rain,Light Rain,250,2013-06-27 10:16:00
6:31 AM,66.2,62.6,88,29.90,5.0,West,17.3,24.2,0.02,Rain,Light Rain,260,2013-06-27 10:31:00
6:52 AM,66.9,61.0,81,29.79,10.0,West,18.4,25.3,0.02,,Overcast,260,2013-06-27 10:52:00
7:20 AM,66.2,60.8,83,29.92,10.0,West,12.7,23.0,N/A,,Overcast,270,2013-06-27 11:20:00
7:33 AM,66.2,60.8,83,29.93,10.0,West,12.7,20.7,N/A,,Mostly Cloudy,260,2013-06-27 11:33:00
7:52 AM,66.0,60.1,81,29.83,10.0,West,15.0,19.6,0.00,Rain,Light Rain,260,2013-06-27 11:52:00
8:39 AM,66.2,60.8,83,29.94,10.0,West,5.8,-,0.04,,Overcast,270,2013-06-27 12:39:00
8:52 AM,66.0,61.0,84,29.84,10.0,West,8.1,-,0.04,,Overcast,260,2013-06-27 12:52:00
9:00 AM,66.2,60.8,83,29.94,10.0,West,6.9,-,N/A,,Overcast,260,2013-06-27 13:00:00
9:47 AM,66.2,60.8,83,29.94,10.0,WSW,5.8,-,0.03,Rain,Light Rain,250,2013-06-27 13:47:00
9:52 AM,66.0,61.0,84,29.84,7.0,WSW,8.1,-,0.04,Rain,Light Rain,250,2013-06-27 13:52:00
10:29 AM,66.2,62.6,88,29.93,5.0,West,4.6,-,0.04,Rain,Rain,270,2013-06-27 14:29:00
10:40 AM,66.2,62.6,88,29.92,2.5,Variable,3.5,-,0.08,Rain,Heavy Rain,0,2013-06-27 14:40:00
10:46 AM,66.2,62.6,88,29.92,3.0,Calm,Calm,-,0.08,Rain,Light Rain,0,2013-06-27 14:46:00
10:52 AM,66.9,61.0,81,29.83,4.0,NW,3.5,-,0.11,Rain,Rain,320,2013-06-27 14:52:00
11:14 AM,66.2,62.6,88,29.93,6.0,WSW,3.5,-,0.02,Rain,Light Rain,250,2013-06-27 15:14:00
11:39 AM,66.2,62.6,88,29.93,3.0,Calm,Calm,-,0.03,Rain,Light Rain,0,2013-06-27 15:39:00
11:52 AM,66.9,62.1,84,29.83,3.0,WSW,5.8,-,0.03,Rain,Light Rain,240,2013-06-27 15:52:00
12:29 PM,68.0,64.4,88,29.92,3.0,West,8.1,-,0.01,,Overcast,260,2013-06-27 16:29:00
12:45 PM,69.8,64.4,83,29.92,2.5,WSW,8.1,-,0.01,,Haze,250,2013-06-27 16:45:00
12:52 PM,69.1,64.0,84,29.82,2.5,West,8.1,-,0.02,Rain,Light Rain,260,2013-06-27 16:52:00
1:03 PM,69.8,64.4,83,29.92,4.0,West,10.4,19.6,0.00,Rain,Light Rain,260,2013-06-27 17:03:00
1:23 PM,69.8,64.4,83,29.92,2.0,WSW,10.4,-,0.00,,Haze,250,2013-06-27 17:23:00
1:52 PM,70.0,64.9,84,29.82,3.0,West,9.2,-,0.01,,Haze,260,2013-06-27 17:52:00
2:52 PM,72.0,66.0,81,29.80,10.0,West,10.4,19.6,N/A,,Overcast,260,2013-06-27 18:52:00
2:59 PM,71.6,66.2,83,29.91,10.0,West,9.2,-,N/A,,Overcast,260,2013-06-27 18:59:00
3:52 PM,73.0,66.0,79,29.79,10.0,West,9.2,-,N/A,,Overcast,260,2013-06-27 19:52:00
4:08 PM,73.4,66.2,78,29.90,10.0,West,6.9,-,N/A,,Overcast,270,2013-06-27 20:08:00
4:41 PM,73.4,66.2,78,29.90,10.0,West,5.8,-,0.00,,Overcast,270,2013-06-27 20:41:00
4:46 PM,73.4,66.2,78,29.89,10.0,West,8.1,-,0.00,,Overcast,260,2013-06-27 20:46:00
4:52 PM,73.0,66.0,79,29.78,10.0,West,8.1,-,0.00,,Overcast,270,2013-06-27 20:52:00
5:52 PM,75.0,66.0,73,29.76,10.0,WNW,10.4,-,N/A,,Overcast,290,2013-06-27 21:52:00
6:16 PM,73.4,66.2,78,29.87,10.0,West,6.9,-,N/A,,Overcast,270,2013-06-27 22:16:00
6:48 PM,73.4,66.2,78,29.87,10.0,West,8.1,-,N/A,,Mostly Cloudy,270,2013-06-27 22:48:00
6:52 PM,75.0,66.9,76,29.75,10.0,West,9.2,-,N/A,,Overcast,260,2013-06-27 22:52:00
7:19 PM,75.2,66.2,73,29.87,10.0,West,6.9,-,N/A,,Mostly Cloudy,270,2013-06-27 23:19:00
7:36 PM,73.4,66.2,78,29.87,10.0,West,6.9,-,N/A,,Overcast,270,2013-06-27 23:36:00
7:52 PM,73.9,66.9,79,29.77,10.0,West,6.9,-,N/A,,Overcast,280,2013-06-27 23:52:00
8:04 PM,73.4,66.2,78,29.87,10.0,West,5.8,-,N/A,,Scattered Clouds,270,2013-06-28 00:04:00
8:20 PM,73.4,66.2,78,29.87,10.0,West,5.8,-,N/A,,Mostly Cloudy,270,2013-06-28 00:20:00
8:44 PM,73.4,66.2,78,29.88,10.0,West,8.1,-,N/A,,Overcast,270,2013-06-28 00:44:00
8:52 PM,72.0,66.0,81,29.78,10.0,West,10.4,-,N/A,,Overcast,260,2013-06-28 00:52:00
9:13 PM,71.6,66.2,83,29.88,10.0,West,8.1,-,N/A,,Mostly Cloudy,260,2013-06-28 01:13:00
9:52 PM,72.0,66.0,81,29.79,10.0,West,3.5,-,N/A,,Overcast,270,2013-06-28 01:52:00
10:36 PM,71.6,66.2,83,29.90,10.0,West,5.8,-,0.01,,Overcast,270,2013-06-28 02:36:00
10:52 PM,72.0,66.0,81,29.80,10.0,WNW,5.8,-,0.01,,Overcast,300,2013-06-28 02:52:00
11:29 PM,71.6,66.2,83,29.88,9.0,WSW,4.6,-,N/A,,Mostly Cloudy,250,2013-06-28 03:29:00
11:52 PM,71.1,66.9,87,29.79,7.0,West,5.8,-,N/A,,Overcast,270,2013-06-28 03:52:00